Weather History for Huntsville Madison, AL

Change the Weather History Date:

Tuesday, March 11, 2014

  Actual Average (KHSV) Record (KHSV)
Temperature  
Mean Temperature 55 °F 52 °F  
Max Temperature 73 °F 63 °F 84 °F (1911)
Min Temperature 37 °F 41 °F 19 °F (1969)
Degree Days  
Heating Degree Days 10 13  
Month to date heating degree days 158  
Since 1 July heating degree days 2610  
Cooling Degree Days 0 0  
Month to date cooling degree days 0  
Year to date cooling degree days 1  
Growing Degree Days 5 (Base 50)    
Moisture  
Dew Point 43 °F    
Average Humidity 60    
Maximum Humidity 87    
Minimum Humidity 36    
Precipitation  
Precipitation 0.00 in 0.17 in 3.76 in (1963)
Month to date precipitation 1.83  
Year to date precipitation 11.56  
Snow  
Snow 0.00 in - - ()
Month to date snowfall  
Since 1 July snowfall  
Snow Depth -    
Sea Level Pressure  
Sea Level Pressure 29.80 in    
Wind  
Wind Speed 3 mph (SSW)    
Max Wind Speed 14 mph    
Max Gust Speed 21 mph    
Visibility 10 miles    
Events      
T = Trace of Precipitation, MM = Missing Value Source: NWS Daily Summary

Daily Weather History Graph

Daily Weather History Graph

Search for Another Location

Airport:

Trip Planner

Search our weather history database for the weather conditions in past years. The results will help you decide how hot, cold, wet, or windy it might be!

Date:

Astronomy

Mar. 11, 2014 Rise Set
Actual Time 7:02 AM CDT 6:50 PM CDT
Civil Twilight 6:37 AM CDT 7:15 PM CDT
Nautical Twilight 6:07 AM CDT 7:45 PM CDT
Astronomical Twilight 5:38 AM CDT 8:14 PM CDT
Moon 2:34 PM CDT (3/11) 3:47 AM CDT (3/11)
Length of Visible Light 12h 38m
Length of Day
11h 48m
Waxing Gibbous, 78% of the Moon is Illuminated
Mar 11
Waxing Gibbous
Mar 16
Full
Mar 23
Last Quarter
Mar 30
New
Apr 7
First Quarter

Hourly Weather History & Observations

Time (CDT) Temp. Dew Point Humidity Pressure Visibility Wind Dir Wind Speed Gust Speed Precip Events Conditions
12:15 AM 42.8 °F 37.4 °F 81% 29.93 in 10.0 mi Calm Calm - N/A   Clear
12:35 AM 41.0 °F 35.6 °F 81% 29.92 in 10.0 mi Calm Calm - N/A   Clear
12:55 AM 42.8 °F 37.4 °F 81% 29.91 in 10.0 mi Calm Calm - N/A   Clear
1:15 AM 42.8 °F 37.4 °F 81% 29.91 in 10.0 mi Calm Calm - N/A   Clear
1:35 AM 42.8 °F 37.4 °F 81% 29.91 in 10.0 mi Calm Calm - N/A   Clear
1:55 AM 42.8 °F 35.6 °F 76% 29.91 in 10.0 mi Calm Calm - N/A   Clear
2:15 AM 42.8 °F 35.6 °F 76% 29.91 in 10.0 mi Calm Calm - N/A   Clear
2:35 AM 41.0 °F 35.6 °F 81% 29.90 in 10.0 mi Calm Calm - N/A   Clear
2:55 AM 41.0 °F 35.6 °F 81% 29.90 in 10.0 mi Calm Calm - N/A   Clear
3:15 AM 41.0 °F 35.6 °F 81% 29.89 in 7.0 mi Calm Calm - N/A   Clear
3:35 AM 41.0 °F 35.6 °F 81% 29.89 in 10.0 mi Calm Calm - N/A   Clear
3:55 AM 41.0 °F 35.6 °F 81% 29.89 in 10.0 mi Calm Calm - N/A   Clear
4:15 AM 39.2 °F 35.6 °F 87% 29.89 in 10.0 mi Calm Calm - N/A   Clear
4:35 AM 41.0 °F 35.6 °F 81% 29.88 in 10.0 mi Calm Calm - N/A   Clear
4:55 AM 41.0 °F 35.6 °F 81% 29.88 in 10.0 mi Calm Calm - N/A   Clear
5:15 AM 39.2 °F 35.6 °F 87% 29.88 in 10.0 mi Calm Calm - N/A   Clear
5:35 AM 39.2 °F 35.6 °F 87% 29.88 in 10.0 mi Calm Calm - N/A   Clear
5:55 AM 39.2 °F 35.6 °F 87% 29.88 in 7.0 mi Calm Calm - N/A   Clear
6:15 AM 39.2 °F 35.6 °F 87% 29.88 in 7.0 mi Calm Calm - N/A   Clear
6:35 AM 37.4 °F 33.8 °F 87% 29.88 in 7.0 mi Calm Calm - N/A   Clear
6:55 AM 39.2 °F 35.6 °F 87% 29.88 in 10.0 mi Calm Calm - N/A   Clear
7:15 AM 39.2 °F 35.6 °F 87% 29.88 in 10.0 mi Calm Calm - N/A   Clear
7:35 AM 39.2 °F 35.6 °F 87% 29.88 in 10.0 mi Calm Calm - N/A   Clear
7:55 AM 41.0 °F 37.4 °F 87% 29.88 in 10.0 mi Calm Calm - N/A   Clear
8:15 AM 44.6 °F 41.0 °F 87% 29.88 in 10.0 mi Calm Calm - N/A   Clear
8:35 AM 46.4 °F 42.8 °F 87% 29.88 in 10.0 mi Calm Calm - N/A   Clear
8:55 AM 53.6 °F 44.6 °F 72% 29.87 in 10.0 mi Calm Calm - N/A   Clear
9:15 AM 57.2 °F 44.6 °F 63% 29.87 in 10.0 mi Calm Calm - N/A   Clear
9:35 AM 59.0 °F 46.4 °F 63% 29.87 in 10.0 mi Calm Calm - N/A   Clear
9:55 AM 60.8 °F 46.4 °F 59% 29.86 in 10.0 mi Calm Calm - N/A   Clear
10:15 AM 62.6 °F 46.4 °F 55% 29.86 in 10.0 mi Calm Calm - N/A   Clear
10:35 AM 64.4 °F 46.4 °F 52% 29.86 in 10.0 mi Calm Calm - N/A   Clear
10:55 AM 64.4 °F 46.4 °F 52% 29.86 in 10.0 mi Calm Calm - N/A   Clear
11:15 AM 68.0 °F 44.6 °F 43% 29.85 in 10.0 mi Calm Calm - N/A   Clear
11:35 AM 68.0 °F 44.6 °F 43% 29.85 in 10.0 mi Calm Calm - N/A   Clear
11:55 AM 69.8 °F 46.4 °F 43% 29.84 in 10.0 mi Calm Calm - N/A   Clear
12:15 PM 69.8 °F 44.6 °F 40% 29.82 in 10.0 mi Calm Calm - N/A   Clear
12:35 PM 69.8 °F 44.6 °F 40% 29.82 in 10.0 mi WSW 9.2 mph - N/A   Clear
12:55 PM 69.8 °F 44.6 °F 40% 29.81 in 10.0 mi Calm Calm - N/A   Clear
1:15 PM 69.8 °F 44.6 °F 40% 29.80 in 10.0 mi South 11.5 mph - N/A   Clear
1:35 PM 71.6 °F 44.6 °F 38% 29.79 in 10.0 mi SSW 10.4 mph - N/A   Clear
1:55 PM 71.6 °F 44.6 °F 38% 29.78 in 10.0 mi SSW 12.7 mph 17.3 mph N/A   Clear
2:15 PM 71.6 °F 46.4 °F 41% 29.77 in 10.0 mi SSW 12.7 mph 20.7 mph N/A   Clear
2:35 PM 71.6 °F 46.4 °F 41% 29.76 in 10.0 mi SSW 10.4 mph 18.4 mph N/A   Clear
2:55 PM 71.6 °F 44.6 °F 38% 29.75 in 10.0 mi SSW 10.4 mph 16.1 mph N/A   Clear
3:15 PM 71.6 °F 46.4 °F 41% 29.74 in 10.0 mi SSW 10.4 mph - N/A   Clear
3:35 PM 73.4 °F 44.6 °F 36% 29.73 in 10.0 mi SW 12.7 mph - N/A   Clear
3:55 PM 73.4 °F 44.6 °F 36% 29.73 in 10.0 mi Calm Calm - N/A   Clear
4:15 PM 73.4 °F 44.6 °F 36% 29.72 in 10.0 mi SW 10.4 mph 16.1 mph N/A   Clear
4:35 PM 73.4 °F 44.6 °F 36% 29.72 in 10.0 mi SSW 12.7 mph - N/A   Scattered Clouds
4:55 PM 73.4 °F 44.6 °F 36% 29.71 in 10.0 mi SW 11.5 mph 18.4 mph N/A   Scattered Clouds
5:15 PM 71.6 °F 44.6 °F 38% 29.71 in 10.0 mi SSW 8.1 mph - N/A   Scattered Clouds
5:35 PM 71.6 °F 44.6 °F 38% 29.70 in 10.0 mi South 8.1 mph - N/A   Scattered Clouds
5:55 PM 71.6 °F 44.6 °F 38% 29.69 in 10.0 mi South 8.1 mph - N/A   Clear
6:15 PM 71.6 °F 46.4 °F 41% 29.69 in 10.0 mi SSW 6.9 mph - N/A   Clear
6:35 PM 69.8 °F 44.6 °F 40% 29.69 in 10.0 mi South 3.5 mph - N/A   Scattered Clouds
6:55 PM 69.8 °F 44.6 °F 40% 29.69 in 10.0 mi South 4.6 mph - N/A   Clear
7:15 PM 69.8 °F 44.6 °F 40% 29.70 in 10.0 mi South 3.5 mph - N/A   Scattered Clouds
7:35 PM 69.8 °F 44.6 °F 40% 29.70 in 10.0 mi South 4.6 mph - N/A   Clear
7:55 PM 69.8 °F 46.4 °F 43% 29.70 in 10.0 mi Calm Calm - N/A   Clear
8:15 PM 68.0 °F 46.4 °F 46% 29.70 in 10.0 mi South 3.5 mph - N/A   Clear
8:35 PM 68.0 °F 46.4 °F 46% 29.70 in 10.0 mi South 6.9 mph - N/A   Clear
8:55 PM 68.0 °F 46.4 °F 46% 29.70 in 10.0 mi SSW 8.1 mph - N/A   Clear
9:15 PM 68.0 °F 48.2 °F 49% 29.70 in 10.0 mi SSW 11.5 mph - N/A   Scattered Clouds
9:35 PM 66.2 °F 48.2 °F 52% 29.70 in 10.0 mi SSW 10.4 mph - N/A   Scattered Clouds
9:55 PM 66.2 °F 48.2 °F 52% 29.70 in 10.0 mi SSW 11.5 mph - N/A   Clear
10:15 PM 66.2 °F 50.0 °F 56% 29.70 in 10.0 mi SSW 9.2 mph - N/A   Scattered Clouds
10:35 PM 66.2 °F 50.0 °F 56% 29.70 in 10.0 mi SSW 13.8 mph 19.6 mph N/A   Clear
10:55 PM 64.4 °F 50.0 °F 59% 29.69 in 10.0 mi SSW 11.5 mph - N/A   Clear
11:15 PM 64.4 °F 51.8 °F 64% 29.69 in 10.0 mi SSW 12.7 mph 17.3 mph N/A   Scattered Clouds
11:35 PM 64.4 °F 51.8 °F 64% 29.69 in 10.0 mi SSW 13.8 mph 18.4 mph N/A   Mostly Cloudy
11:55 PM 62.6 °F 51.8 °F 68% 29.68 in 10.0 mi South 13.8 mph 19.6 mph N/A   Mostly Cloudy